JF7ELG-13 Weather Reports


time (UTC)temp
C
wind
direction
speed
KPH
gust
KPH
rain 1hr
cm
rain 24hr
cm
rain mn
cm
humidity
%
barometer
mb
20260505221826 18 99 0.0 3.2 0.00 0.00 0.00 64 1017.8
20260505220324 18 61 0.0 1.6 0.00 0.00 0.00 67 1017.7
20260505214817 17 62 0.0 1.6 0.00 0.00 0.00 69 1017.6
20260505213338 16 77 0.0 1.6 0.00 0.00 0.00 72 1017.7
20260505211829 16 74 0.0 1.6 0.00 0.00 0.00 72 1017.8
20260505210319 15 94 0.0 0.0 0.00 0.00 0.00 74 1017.6
20260505204834 13 93 0.0 0.0 0.00 0.00 0.00 78 1017.6
20260505203324 13 86 0.0 0.0 0.00 0.00 0.00 78 1017.4
20260505201816 12 90 0.0 1.6 0.00 0.00 0.00 79 1017.4
20260505200334 12 91 0.0 0.0 0.00 0.00 0.00 77 1017.4
20260505194826 13 100 0.0 1.6 0.00 0.00 0.00 75 1017.2
20260505193348 12 72 0.0 1.6 0.00 0.00 0.00 77 1017.2
20260505191816 13 92 0.0 1.6 0.00 0.00 0.00 72 1017.3
20260505190338 13 95 0.0 1.6 0.00 0.00 0.00 72 1017.2
20260505184825 13 87 0.0 0.0 0.00 0.00 0.00 70 1017.3
20260505183324 13 89 0.0 1.6 0.00 0.00 0.00 69 1017.2
20260505181818 13 70 0.0 1.6 0.00 0.00 0.00 70 1017.2
20260505180321 12 88 0.0 1.6 0.00 0.00 0.00 69 1017.3
20260505174826 12 120 0.0 1.6 0.00 0.00 0.00 67 1017.3
20260505173350 13 80 0.0 1.6 0.00 0.00 0.00 64 1017.3
20260505171822 13 87 0.0 3.2 0.00 0.00 0.00 61 1017.3
20260505170322 13 106 0.0 3.2 0.00 0.00 0.00 60 1017.3
20260505164852 13 89 0.0 1.6 0.00 0.00 0.00 56 1017.3
20260505163331 13 49 0.0 3.2 0.00 0.00 0.00 54 1017.3
20260505161825 13 86 0.0 1.6 0.00 0.00 0.00 53 1017.6
20260505160330 13 92 0.0 3.2 0.00 0.00 0.00 53 1017.4
20260505153345 13 92 0.0 1.6 0.00 0.00 0.00 54 1017.7
20260505151819 13 83 0.0 1.6 0.00 0.00 0.00 55 1017.7
20260505150324 13 90 0.0 1.6 0.00 0.00 0.00 54 1017.7
20260505140319 13 313 0.0 1.6 0.00 0.00 0.00 61 1017.9
20260505124833 13 64 0.0 1.6 0.00 0.00 0.00 68 1018.1
20260505123329 13 84 0.0 1.6 0.00 0.00 0.00 68 1018.1
20260505121827 13 94 0.0 1.6 0.00 0.00 0.00 69 1018.0
20260505120324 13 89 0.0 1.6 0.00 0.00 0.00 69 1017.9
20260505114833 13 103 0.0 1.6 0.00 0.00 0.00 70 1017.7
20260505113330 13 89 0.0 1.6 0.00 0.00 0.00 69 1017.4
20260505111840 14 86 0.0 1.6 0.00 0.00 0.00 67 1017.7
20260505110352 14 87 0.0 3.2 0.00 0.00 0.00 66 1017.4
20260505101840 15 88 0.0 3.2 0.00 0.00 0.00 63 1017.0
20260505100328 15 70 0.0 1.6 0.00 0.00 0.00 64 1017.0
20260505094829 15 82 0.0 3.2 0.00 0.00 0.00 65 1016.7
20260505093318 15 76 0.0 4.8 0.00 0.00 0.00 65 1016.5
20260505091838 15 81 0.0 3.2 0.00 0.00 0.00 66 1016.2
20260505090354 16 84 0.0 1.6 0.00 0.00 0.00 66 1016.1
20260505084836 16 81 0.0 4.8 0.00 0.00 0.00 65 1016.1
20260505083331 17 295 1.6 4.8 0.00 0.00 0.00 61 1016.1
20260505081815 17 108 0.0 4.8 0.00 0.00 0.00 59 1016.1
20260505080327 17 60 0.0 4.8 0.00 0.00 0.00 58 1016.1
20260505074826 17 324 1.6 4.8 0.00 0.00 0.00 57 1016.0
20260505073323 17 295 1.6 4.8 0.00 0.00 0.00 58 1015.8
20260505071900 17 253 0.0 4.8 0.00 0.00 0.00 56 1015.7
20260505070327 17 281 0.0 4.8 0.00 0.00 0.00 57 1015.8
20260505064827 17 290 1.6 8.0 0.00 0.00 0.00 56 1015.7
20260505063322 17 58 1.6 6.4 0.00 0.00 0.00 54 1015.6
20260505061823 17 35 1.6 6.4 0.00 0.00 0.00 58 1015.5
20260505060356 17 316 1.6 6.4 0.00 0.00 0.00 58 1015.5
20260505054837 17 27 1.6 6.4 0.00 0.00 0.00 57 1015.4
20260505053350 18 299 1.6 4.8 0.00 0.00 0.00 54 1015.3
20260505051849 17 292 1.6 4.8 0.00 0.00 0.00 53 1015.5
20260505050321 17 300 1.6 6.4 0.00 0.00 0.00 53 1015.6
20260505040321 17 293 1.6 8.0 0.00 0.00 0.00 55 1015.6
20260505034827 16 283 1.6 6.4 0.00 0.00 0.00 56 1015.7
20260505033334 17 307 0.0 9.7 0.00 0.00 0.00 57 1015.5
20260505031839 17 240 3.2 6.4 0.00 0.00 0.00 53 1015.6
20260505030329 23 95 0.0 1.6 0.00 0.00 0.00 32 1015.6
20260505024833 22 97 0.0 1.6 0.00 0.00 0.00 34 1015.6
20260505023326 22 94 0.0 1.6 0.00 0.00 0.00 34 1015.5
20260505021846 22 84 0.0 1.6 0.00 0.00 0.00 35 1015.5
20260505020316 22 107 1.6 4.8 0.00 0.00 0.00 37 1015.4
20260505014830 22 93 0.0 1.6 0.00 0.00 0.00 37 1015.7
20260505013325 21 93 0.0 1.6 0.00 0.00 0.00 39 1015.6
20260505011840 21 102 0.0 1.6 0.00 0.00 0.00 37 1015.7
20260505010334 21 91 0.0 1.6 0.00 0.00 0.00 39 1015.6
20260505004818 21 81 0.0 1.6 0.00 0.00 0.00 41 1015.4
20260505003355 20 100 0.0 3.2 0.00 0.00 0.00 42 1015.3
20260505001836 20 90 0.0 1.6 0.00 0.00 0.00 44 1015.2
20260505000346 18 91 0.0 3.2 0.00 0.00 0.00 45 1015.0
20260504234845 18 110 0.0 1.6 0.00 0.00 0.00 45 1014.8
20260504233334 18 71 0.0 1.6 0.00 0.00 0.00 47 1014.8
20260504231841 17 93 0.0 1.6 0.00 0.00 0.00 49 1014.8
20260504230331 16 101 0.0 4.8 0.00 0.00 0.00 51 1014.7
20260504224836 15 131 0.0 3.2 0.00 0.00 0.00 53 1014.5
20260504223328 15 110 0.0 3.2 0.00 0.00 0.00 57 1014.3